Location: Carri�res
(48.9069°N, 2.1792°E)
Time: 17:20:13
(UTC+00:00)

SeaSat 1 - Pass Details

Date: 15 May 2021
Orbit: 744 x 747 km, 108.0° (Epoch: 12 June)

Event Time Altitude Azimuth Distance (km) Brightness Sun altitude
Rises 23:28:25 0° 39° (NE) 3,201 6.4 -21.9°
Reaches altitude 10° 23:31:04 10° 52° (NE) 2,272 5.4 -21.9°
Maximum altitude 23:35:07 25° 107° (ESE) 1,480 3.8 -21.9°
Enters shadow 23:35:22 25° 112° (ESE) 1,484 3.7 -21.9°
